Regional Weather Roundup
Issued by NWS Cleveland, OH

Home | Current Version | Previous Version | Text Only | Print | Product List | Glossary Off
Versions: 1 2 3 4 5 6 7 8 9 10 11 12 13 14 15 16 17 18 19 20 21 22 23 24 25 26 27 28 29 30 31 32 33 34 35 36 37 38 39 40 41 42 43 44 45 46 47 48 49 50

000
ASUS41 KCLE 250110
RWRCLE
OHIO REGIONAL WEATHER ROUNDUP
NATIONAL WEATHER SERVICE CLEVELAND, OH
900 PM EDT WED MAY 24 2017

NOTE: "FAIR" INDICATES FEW OR NO CLOUDS BELOW 12,000 FEET WITH NO
SIGNIFICANT WEATHER AND/OR OBSTRUCTIONS TO VISIBILITY.

OHZ001>008-015>018-024>027-034-035-043-044-250200-
   NORTHWEST OHIO

CITY           SKY/WX    TMP DP  RH WIND       PRES   REMARKS
DEFIANCE       CLOUDY    58  57  97 NE13      29.45S
FINDLAY        CLOUDY    64  58  80 E12       29.42F
TOLEDO EXPRESS CLOUDY    58  58 100 E14       29.46F
TOLEDO EXEC    CLOUDY    60  59  96 E10       29.48S
LIMA           CLOUDY    64  60  87 NE10      29.39F
$$

OHZ009>014-019>023-028>033-038-089-250200-
   NORTHEAST OHIO

CITY           SKY/WX    TMP DP  RH WIND       PRES   REMARKS
CLE-HOPKINS    CLOUDY    63  58  83 S9        29.52R
CLE-LAKEFRONT  LGT RAIN  62  57  83 E18G29    29.46F
CUY CO. ARPT   LGT RAIN  63  59  88 SE16      29.51F
LORAIN-ELYRIA    N/A    N/A N/A N/A MISG      29.49R
ASHTABULA      LGT RAIN  61  56  83 SE10      29.57R
AKRON-CANTON   LGT RAIN  61  57  87 E12       29.50F
WOOSTER        CLOUDY    60  58  92 SE12      29.49R
MANSFIELD      CLOUDY    61  60  97 E10       29.47R
YOUNGSTOWN     LGT RAIN  59  56  89 E12       29.54F
$$

OHZ042-051>053-060>062-070>072-077>081-250200-
  SOUTHWEST OHIO

CITY           SKY/WX    TMP DP  RH WIND       PRES   REMARKS
CINC-COVINGTON MOCLDY    60  58  92 NW12      29.36F
CINC-LUNKEN    CLOUDY    61  60  97 VRB5      29.36F
HAMILTON       LGT RAIN  61  25  25 NW7       29.37S
DAYTON         CLOUDY    63  60  90 NE8       29.35F
WRIGHT-PAT AFB HVY RAIN  64  64 100 E17G29    29.34F VSB 1/2
DAYTON GENERAL HVY RAIN  58  57  97 NW7       29.36R VSB 1
WILMINGTON     CLOUDY    64  62  93 SE8       29.35F
$$

OHZ036-037-039>041-045>050-054>059-063>069-073>076-082>088-250200-
  CENTRAL AND SOUTHEAST OHIO

CITY           SKY/WX    TMP DP  RH WIND       PRES   REMARKS
COLUMBUS       CLOUDY    67  60  78 E14       29.39F
OSU AIRPORT    CLOUDY    65  61  87 E10G22    29.39F
BOLTON FIELD   CLOUDY    65  60  82 SE12      29.40S
RICKENBACK AFB CLOUDY    65  60  84 SE8       29.39S
NEWARK         CLOUDY    66  59  78 E8        29.42S
MARION         CLOUDY    63  59  87 E13       29.42F
LANCASTER      CLOUDY    67  59  75 E9        29.40F
ZANESVILLE     NOT AVBL
NEW PHILLY     NOT AVBL
$$



USA.gov is the U.S. government's official web portal to all federal, state and local government web resources and services.